sat.trackr.live / text

‹ back to catalog

IRIDIUM 124

NORAD 42810 · 2017-039H

PAYLOAD ACTIVE UNKNOWN

§ Identity

Operator
Country
US
Launch date
2017-06-25
Launch site
AFWTR
Launch vehicle
Mass (kg)
RCS (m²)

Purposes: comms

External: N2YO · Heavens-Above · Gunter

§ Orbital elements

Epoch: 2026-05-25T04:09:25.566048Z

Period
99.77 min
Inclination
86.4458°
Eccentricity
0.0002069
Mean motion
14.43279823 rev/d
Perigee alt
746.2 km
Apogee alt
749.2 km
Semi-major
7,125.8 km
B*
-8.1035e-6
RAAN
299.9861°
Arg perigee
91.1711°
Mean anomaly
268.9727°
Rev number
47,179

§ Raw data

IRIDIUM 1241 42810U 17039H   26145.17321257 -.00000007  00000+0 -81035-5 0  99912 42810  86.4458 299.9861 0002069  91.1711 268.9727 14.43279823471795

JSON: /api/v1/satellites/42810 · /tle

For live sub-satellite position, see the globe view (requires WebGL).

§ Visibility from observer

Set your observer location to see the next 7 days of passes ≥ 10°. The values pass through the URL so the page stays shareable.

No JS? Fill the form by hand. The geolocation button needs JavaScript.